Погода в Нова Быстрице

Чехия     49°01′07″N   15°06′39″E
В апреле 2022 года жителям России запретили посещать сайт meteo.paraplan.net по решению Генеральной прокуратуры. Аудитория сайта уменьшилась в 10 раз. Владельцы сайта не видят смысла в поддержке погодного сервера в таких условиях. Сайт будет закрыт в октябре.
темп.,
°C
ветер,
м/с
пор.,
м/с
влажн.,
%
обл.,
%
осадки,
мм/ч
давл.,
гПа
погр.,
м
30 сентября, пт
пт3023:00+9всв2678100 0.1 1006155
02:00+7св1292100 2.1 100898
05:00+7ссз2495100 1.3 1008175
08:00+7сз1492100 1.3 1010195
11:00+8зсз1193100 0.3 101298
14:00+8ююв0192100 0.3 101382
17:00+10ю1182100 0.0 1013310
20:00+7в1193100 0.0 101512
1 октября, сб
сб123:00+6вюв119481 0.0 101510
02:00+6юв11959 0.0 101515
05:00+6ююв11965 0.0 101511
08:00+7ю239112 0.0 101666
11:00+13зюз366354 0.0 1014614
14:00+15зюз4954100 0.0 10131233
17:00+12з51364100 0.1 10141356
20:00+9зюз41293100 1.4 1015691
2 октября, вс
вс223:00+9зюз5129368 0.6 1016915
02:00+10зюз5139199 0.6 10161032
05:00+10з41193100 0.3 1018951
08:00+10з4119197 0.9 1020908
11:00+11зсз51185100 0.4 10211295
14:00+12зсз5117454 0.6 10211332
17:00+12зсз51178100 0.1 10211301
20:00+10зсз41284100 0.2 1022674
3 октября, пн
пн323:00+8з28955 0.0 1023198
02:00+7з2697100 0.1 1023147
05:00+7з1197100 0.1 102220
08:00+8зсз1494100 0.1 1022132
11:00+12сз3581100 0.0 1022680
14:00+15зсз465553 0.1 10211391
17:00+14зсз376262 0.0 10211287
20:00+10з288414 0.0 1022228
4 октября, вт
вт423:00+9сз289141 0.0 1022250
02:00+7з119464 0.0 102215
05:00+8зсз13946 0.0 1022112
08:00+8зсз119439 0.0 102220
11:00+14зсз256680 0.0 1021649
14:00+16зсз345580 0.0 10201168
17:00+15сз2363100 0.0 1019181
20:00+10вюв008052 0.0 102110